Change the Weather History Date:

Monday, September 29, 2014

  Actual Average Record
Temperature  
Mean Temperature 66 °F -  
Max Temperature 79 °F 69 °F 86 °F (1946)
Min Temperature 55 °F 46 °F 31 °F (1957)
Cooling Degree Days 2    
Growing Degree Days 16 (Base 50)    
Moisture  
Dew Point 58 °F    
Average Humidity 78    
Maximum Humidity 94    
Minimum Humidity 50    
Precipitation  
Precipitation 0.00 in - - ()
Sea Level Pressure  
Sea Level Pressure 29.95 in    
Wind  
Wind Speed 0 mph (SSW)    
Max Wind Speed 4 mph    
Max Gust Speed -    
Visibility 10 miles    
Events Rain    
Averages and records for this station are not official NWS values.
T = Trace of Precipitation, MM = Missing Value Source: NWS Daily Summary

Daily Weather History Graph

Daily Weather History Graph

Search for Another Location

Airport or City:

Trip Planner

Search our weather history database for the weather conditions in past years. The results will help you decide how hot, cold, wet, or windy it might be!

Date:

Astronomy

Sep. 29, 2014 Rise Set
Actual Time 6:53 AM EDT 6:44 PM EDT
Civil Twilight 6:25 AM EDT 7:11 PM EDT
Nautical Twilight 5:54 AM EDT 7:43 PM EDT
Astronomical Twilight 5:21 AM EDT 8:15 PM EDT
Moon 12:04 PM EDT (9/29) 10:14 PM EDT (9/29)
Length of Visible Light 12h 45m
Length of Day
11h 50m
Waxing Crescent, 27% of the Moon is Illuminated
Sep 29
Waxing Crescent
Oct 1
First Quarter
Oct 8
Full
Oct 15
Last Quarter
Oct 23
New

Hourly Weather History & Observations

Time (EDT) Temp. Dew Point Humidity Pressure Visibility Wind Dir Wind Speed Gust Speed Precip Events Conditions
12:53 AM 59.0 °F 55.9 °F 90% 30.00 in 10.0 mi Calm Calm - N/A   Clear
1:53 AM 57.9 °F 55.0 °F 90% 30.00 in 10.0 mi Calm Calm - N/A   Clear
2:53 AM 57.9 °F 55.0 °F 90% 29.99 in 10.0 mi Calm Calm - N/A   Clear
3:53 AM 57.2 °F 55.4 °F 94% 29.98 in 10.0 mi Calm Calm - N/A   Clear
4:53 AM 57.0 °F 55.0 °F 93% 29.98 in 10.0 mi Calm Calm - N/A   Clear
5:53 AM 55.9 °F 54.0 °F 93% 29.98 in 9.0 mi Calm Calm - N/A   Clear
6:53 AM 57.0 °F 54.0 °F 89% 29.98 in 10.0 mi Calm Calm - N/A   Clear
7:53 AM 57.9 °F 55.0 °F 90% 29.98 in 8.0 mi Calm Calm - N/A   Clear
8:53 AM 62.1 °F 57.9 °F 86% 29.97 in 10.0 mi North - - N/A   Clear
9:53 AM 66.0 °F 59.0 °F 78% 29.97 in 10.0 mi North - - N/A   Clear
10:53 AM 71.1 °F 59.0 °F 66% 29.96 in 10.0 mi Calm Calm - N/A   Clear
11:53 AM 73.9 °F 59.0 °F 59% 29.96 in 10.0 mi South 3.5 mph - N/A   Clear
12:53 PM 77.0 °F 59.0 °F 54% 29.95 in 10.0 mi South 3.5 mph - N/A   Clear
1:53 PM 77.0 °F 59.0 °F 54% 29.93 in 10.0 mi Calm Calm - N/A   Clear
2:53 PM 78.1 °F 57.9 °F 50% 29.91 in 10.0 mi Calm Calm - N/A   Clear
3:53 PM 75.9 °F 59.0 °F 56% 29.90 in 10.0 mi Calm Calm - N/A   Clear
4:53 PM 72.0 °F 62.1 °F 71% 29.89 in 10.0 mi Calm Calm - N/A   Mostly Cloudy
5:53 PM 69.1 °F 63.0 °F 81% 29.90 in 9.0 mi Calm Calm - 0.00 in Rain Light Rain
6:53 PM 69.1 °F 61.0 °F 75% 29.90 in 10.0 mi Calm Calm - 0.00 in   Mostly Cloudy
7:53 PM 68.0 °F 60.1 °F 76% 29.91 in 10.0 mi NW 3.5 mph - 0.00 in   Overcast
8:53 PM 66.9 °F 60.1 °F 79% 29.92 in 10.0 mi Calm Calm - N/A   Partly Cloudy
9:53 PM 64.0 °F 60.1 °F 87% 29.93 in 10.0 mi Calm Calm - N/A   Mostly Cloudy
10:53 PM 64.0 °F 60.1 °F 87% 29.93 in 10.0 mi Calm Calm - N/A   Overcast
11:53 PM 63.0 °F 60.1 °F 90% 29.92 in 9.0 mi Calm Calm - N/A   Overcast